Regional Weather Roundup
Issued by NWS

Home | Current Version | Previous Version | Graphics & Text | Print | Product List | Glossary On
Versions: 1 2 3 4 5 6 7 8 9 10 11 12 13 14 15 16 17 18 19 20 21 22 23 24 25 26 27 28 29 30 31 32 33 34 35 36 37 38 39 40 41 42 43 44 45 46 47 48 49 50
000
ASUS43 KIND 210209
RWRIN

WEATHER ROUNDUP FOR INDIANA
NATIONAL WEATHER SERVICE INDIANAPOLIS IN
1000 PM EDT SUN MAY 20 2018

NOTE: "FAIR" INDICATES FEW OR NO CLOUDS BELOW 12,000 FEET WITH NO
SIGNIFICANT WEATHER AND/OR OBSTRUCTIONS TO VISIBILITY.

* - STATION DOES NOT REPORT WEATHER SUCH AS PRECIPITATION OR FOG.

+ - STATION NOT QUALITY CONTROLLED BY THE NATIONAL WEATHER SERVICE.
    USE DATA WITH CAUTION...ESPECIALLY DEWPOINT AND RELATIVE
    HUMIDITY OBSERVATIONS.

INZ001>003-010>013-019-020-210300-
NORTHWEST INDIANA

CITY           SKY/WX    TMP DP  RH WIND       PRES   REMARKS
GARY /AIRPORT/ CLOUDY    48  46  93 N9        30.18R
KNOX *+        CLOUDY    59  55  88 N7        30.13R
LA PORTE +     CLOUDY    56  54  91 NW8       30.16R
MICHIGAN CITY+ CLOUDY    50  50 100 W5        30.18R
MONTICELLO +   FAIR     N/A N/A N/A N6        30.11R
RENSSELAER +   MOCLDY    55  50  82 N8        30.14R
VALPARAISO     CLOUDY    55  51  86 NW7       30.15R

$$

LMZ046-743>745-210300-
SOUTHERN LAKE MICHIGAN

STATION/POSITION TIME  TEMP    WIND        PRES    WAVE
                       AIR SEA DIR/SP/G            HT
                 (UTC) (F)     (DEG/KT/KT) (MB)    (FT)
BURNS HARBOR     0140   46     330/  9/ 11 1022.0R
MICHIGAN CITY    0140   48     310/  9/ 10   N/A
5NW MICH CITY    0200   45 52  350/  8/ 10   N/A     3

$$

INZ004-005-014>016-021>024-210300-
NORTH CENTRAL INDIANA

CITY           SKY/WX    TMP DP  RH WIND       PRES   REMARKS
GOSHEN         CLOUDY    61  58  90 NE9       30.13F
LOGANSPORT +   CLOUDY    66  61  82 E5        30.12R
PERU/GRISSOM   CLOUDY    68  66  92 E6        30.10R
ROCHESTER +    MOCLDY    66  61  82 NE7       30.11S
SOUTH BEND     FAIR      59  56  89 E7        30.12F
WARSAW +       CLOUDY    63  59  88 NE10      30.12S

$$

INZ006>009-017-018-025>027-210300-
NORTHEAST INDIANA

CITY           SKY/WX    TMP DP  RH WIND       PRES   REMARKS
ANGOLA *+      CLOUDY    61  57  88 E7        30.15S
AUBURN +       CLOUDY    63  59  88 NE8       30.16R
FORT WAYNE     CLOUDY    66  62  87 NE12      30.14R
HUNTINGTON +   CLOUDY    67  61  83 E6        30.12S
KENDALLVILLE +   N/A     61  56  83 NE8       30.16R

$$

INZ028-029-035-036-043>045-051>053-210300-
WEST CENTRAL INDIANA

CITY           SKY/WX    TMP DP  RH WIND       PRES   REMARKS
CRAWFORDSVL +  FAIR      69  65  88 N7        30.09R
GREENCASTLE +  FAIR      72  63  73 CALM      30.08R
LAFAYETTE      FAIR      66  62  87 NE6       30.08R
TERRE HAUTE    FAIR      72  64  76 CALM      30.06R

$$

INZ030>032-037>040-046>048-054>057-064-065-210300-
CENTRAL INDIANA

CITY           SKY/WX    TMP DP  RH WIND       PRES   REMARKS
ANDERSON       FAIR      69  63  81 CALM      30.11S
COLUMBUS       CLEAR     73  63  68 E6        30.07S
FISHERS *+     FAIR      70  66  88 E5        30.09S
FRANKFORT +    FAIR      71  65  80 NE3       30.12R
GREENWOOD *+   FAIR      73  64  71 NE5       30.08S
INDIANAPOLIS   MOCLDY    75  64  68 NE10      30.07R
-EAGLE CREEK   FAIR      74  63  68 NE7       30.07S
KOKOMO +       FAIR      67  63  87 E8        30.12R
MARION +       FAIR      66  62  87 CALM      30.12R
MT COMFORT *+  FAIR      70  66  88 NE7       30.09S
SHELBYVILLE    FAIR      73  67  81 E7        30.08R
ZIONSVILLE +     N/A     68  64  87 NE5       30.10S

$$

INZ033-034-041-042-049-050-058-059-210300-
EAST CENTRAL INDIANA

CITY           SKY/WX    TMP DP  RH WIND       PRES   REMARKS
MUNCIE         FAIR      69  63  81 NE5       30.11R
RICHMOND +     FAIR      66  66 100 CALM      30.12R FOG

$$

INZ060-061-067>069-081>083-085>088-210300-
SOUTHWEST INDIANA

CITY           SKY/WX    TMP DP  RH WIND       PRES   REMARKS
EVANSVILLE     FAIR      73  71  93 SW7       30.07R
HUNTINGBURG +  FAIR      76  69  79 W3        30.06R
WASHINGTON +   FAIR      76  63  64 CALM      30.05R

$$

INZ062-063-066-070>080-084-089>092-210300-
SOUTH CENTRAL AND SOUTHEAST INDIANA

CITY           SKY/WX    TMP DP  RH WIND       PRES   REMARKS
BATESVILLE +   CLOUDY    68  68 100 CALM      30.10R
BEDFORD +      FAIR      73  64  73 NE3       30.05S
BLOOMINGTON    FAIR      73  69  87 CALM      30.07R
FRENCH LICK *+ FAIR      73  61  64 CALM      30.07R
MADISON *+     FAIR      70  64  83 S5        30.10R
NORTH VERNON + FAIR      70  68  94 NE5       30.08R
SEYMOUR +      FAIR      75  63  64 N5        30.07R

$$





USA.gov is the U.S. government's official web portal to all federal, state and local government web resources and services.